[[{"header":{"parameterUnit":"m.s-1","parameterCategory":1,"la1":30.2991,"la2":30.254,"lo1":-89.0895,"lo2":-89.0444,"dy":0.0017,"dx":0.0017,"nx":28,"ny":28,"refTime":"2025-06-12T09:00:00:Z","depth":0,"parameterNumber":2,"parameterNumberName":"U-component_of_WINDS"},"data":[0,0,0,0,0,0,0,0,0,0,0,0,0,0,0,0,0,0,0,0,0,0,0,0,0,0,0,0,0,0,0,0,0,0,0,0,0,0,0,0,0,0,0,0,0,0,0,0,0,0,0,0,0,0,0,0,0,0,-1.9479,-1.948,0,-1.9602,-1.9603,-1.9605,-1.9661,-1.9661,-1.9661,-1.9661,-1.9787,-1.979,-1.9794,0,0,0,0,0,0,0,0,0,0,0,0,0,-1.9293,-1.9296,-1.9479,-1.9481,-1.9482,-1.9602,-1.9603,-1.9605,-1.9662,-1.9661,-1.9661,-1.9661,-1.9786,-1.979,-1.9794,0,0,0,0,0,0,0,0,0,0,0,0,0,-1.939,-1.9297,-1.9479,-1.9525,-1.953,-1.9601,-1.9603,-1.9605,-1.9662,-1.9661,-1.9661,-1.9661,-1.9785,-1.979,-1.9795,-1.983,0,0,-1.981,-1.9813,0,0,0,0,0,0,0,0,-1.9385,-1.9397,-1.9516,-1.9522,-1.9528,-1.9616,-1.9584,-1.9681,-1.9662,-1.9612,-1.9661,-1.9661,-1.973,-1.974,-1.9763,-1.9835,-1.9841,-1.9811,-1.9814,-1.9816,-1.9818,0,0,0,0,0,0,0,-1.9378,-1.9392,-1.9528,-1.9518,-1.9525,-1.9539,-1.9553,-1.9602,-1.967,-1.9616,-1.962,-1.9634,-1.9733,-1.9758,-1.9767,-1.9843,-1.9811,-1.9815,-1.9819,-1.9821,-1.9947,-1.9948,0,0,0,0,0,0,-1.9364,-1.9386,-1.9524,-1.9531,-1.9454,-1.9542,-1.9558,-1.9588,-1.967,-1.9682,-1.9634,-1.9636,-1.9749,-1.9761,-1.9771,-1.9817,-1.9816,-1.9821,-1.9824,-1.9947,-1.9947,-1.9948,0,0,0,0,0,0,-1.9359,-1.9375,-1.9519,-1.946,-1.9479,-1.9546,-1.9579,-1.959,-1.9615,-1.9684,-1.9696,-1.9647,-1.975,-1.9764,-1.9814,-1.9822,-1.9823,-1.9828,-1.9947,-1.9947,-1.9948,-1.9907,0,0,0,0,0,0,-1.9354,-1.9373,-1.9388,-1.946,-1.9482,-1.956,-1.958,-1.9593,-1.9624,-1.9628,-1.9699,-1.9711,-1.9751,-1.9806,-1.9819,-1.9829,-1.9832,-1.9946,-1.9947,-1.9947,-1.9908,-1.9906,-1.9905,0,0,0,0,0,-1.9347,-1.9372,-1.9388,-1.9405,-1.9502,-1.956,-1.9573,-1.9619,-1.9624,-1.9639,-1.9683,-1.9708,-1.9818,-1.9811,-1.9826,-1.9837,-1.9946,-1.9947,-1.9947,-1.9909,-1.9907,-1.9905,0,0,0,0,0,0,-1.93,-1.9383,-1.9401,-1.9451,-1.9498,-1.957,-1.959,-1.9615,-1.9662,-1.9664,-1.9718,-1.9734,-1.9778,-1.9813,-1.9803,-1.9874,-1.9885,-1.9888,-1.985,-1.9849,-1.9847,-1.9838,-1.9836,0,0,0,0,0,-1.9295,-1.9336,-1.9406,-1.9443,-1.9466,-1.9523,-1.9551,-1.9581,-1.9633,-1.9653,-1.97,-1.9749,-1.9794,-1.9823,-1.9869,-1.9913,-1.9929,-1.9928,-1.9926,-1.9925,-1.9927,-1.9952,-1.9952,-1.995,-1.995,-1.995,0,0,-1.9287,-1.9337,-1.9359,-1.9435,-1.9475,-1.9516,-1.954,-1.9583,-1.9613,-1.966,-1.971,-1.9746,-1.9803,-1.985,-1.9873,-1.988,-1.9931,-1.9925,-1.9923,-1.9927,-1.9952,-1.9952,-1.9953,-1.995,-1.995,-1.995,0,0,-1.9291,-1.9333,-1.9368,-1.9407,-1.9467,-1.9505,-1.9513,-1.9581,-1.9606,-1.9657,-1.9692,-1.9729,-1.9807,-1.9846,-1.9876,-1.9892,-1.9917,-1.9905,-1.9896,-1.9919,-1.992,-1.992,-1.9925,-1.9926,-1.9908,-1.9908,-1.9908,0,-1.9273,-1.9336,-1.9383,-1.9423,-1.9454,-1.9497,-1.9532,-1.9568,-1.964,-1.966,-1.9667,-1.9764,-1.9806,-1.9862,-1.9865,-1.9888,-1.9899,-1.9898,-1.9916,-1.9917,-1.9918,-1.9923,-1.9925,-1.9906,-1.9906,-1.9906,-1.9906,0,-1.9309,-1.9352,-1.9373,-1.944,-1.9474,-1.9511,-1.9563,-1.9591,-1.9618,-1.9655,-1.9705,-1.9757,-1.9813,-1.9828,-1.9856,-1.9887,-1.989,-1.9905,-1.9917,-1.9915,-1.9921,-1.9924,-1.9903,-1.9904,-1.9904,-1.9905,0,0,-1.929,-1.9381,-1.9388,-1.9418,-1.9486,-1.952,-1.9558,-1.9613,-1.9635,-1.9683,-1.9716,-1.9779,-1.9793,-1.9827,-1.9859,-1.9879,-1.9887,-1.9892,-1.9895,-1.9889,-1.9925,-1.9912,-1.9914,-1.9904,-1.9905,-1.9905,-1.992,0,-1.9304,-1.9374,-1.9416,-1.947,-1.9509,-1.9549,-1.9582,-1.9627,-1.9662,-1.97,-1.9738,-1.9782,-1.9798,-1.9818,-1.984,-1.9882,-1.9895,-1.9881,-1.9935,-1.9936,-1.992,-1.9918,-1.9906,-1.9917,-1.9922,-1.9923,-1.9923,0,-1.933,-1.9375,-1.9432,-1.9494,-1.9512,-1.9541,-1.9593,-1.9629,-1.968,-1.9704,-1.974,-1.9772,-1.9813,-1.982,-1.9877,-1.9866,-1.9891,-1.9914,-1.9916,-1.9923,-1.993,-1.9924,-1.9922,-1.9923,-1.9927,-1.9927,-1.9927,0,-1.9309,-1.9384,-1.9427,-1.9452,-1.9526,-1.9545,-1.9576,-1.9627,-1.9657,-1.9702,-1.9721,-1.9771,-1.9798,-1.9835,-1.9879,-1.988,-1.9931,-1.9942,-1.9951,-1.995,-1.9961,-1.996,-1.9962,-1.9976,-1.9976,-1.9976,-1.9976,0,-1.932,-1.9353,-1.9419,-1.9445,-1.9483,-1.953,-1.9566,-1.9601,-1.9645,-1.9679,-1.9717,-1.9747,-1.9803,-1.984,-1.9875,-1.9916,-1.9928,-1.9948,-1.9957,-1.9945,-1.9942,-1.9962,-1.9962,-1.9976,-1.9976,-1.9976,-1.9976,0,-1.9303,-1.9349,-1.9399,-1.9463,-1.948,-1.9505,-1.956,-1.9587,-1.9623,-1.9665,-1.9677,-1.9734,-1.9779,-1.9826,-1.9888,-1.9911,-1.9951,-1.9963,-1.9934,-1.9939,-1.9945,-1.9943,-1.996,-1.9964,-1.9975,-1.9975,-1.9975,0,-1.9308,-1.9334,-1.94,-1.9425,-1.9455,-1.9495,-1.9525,-1.9572,-1.9601,-1.966,-1.9679,-1.9727,-1.9769,-1.9839,-1.9886,-1.9933,-1.9946,-1.9949,-1.9954,-1.994,-1.9946,-1.9944,-1.9946,-1.9947,-1.9947,-1.9946,-1.9946,0,-1.931,-1.933,-1.9371,-1.9419,-1.9453,-1.9494,-1.9535,-1.9554,-1.9609,-1.9639,-1.9686,-1.9718,-1.978,-1.9827,-1.9879,-1.9912,-1.9938,-1.9944,-1.9949,-1.9937,-1.9918,-1.9928,-1.9928,-1.9944,-1.9944,-1.9944,-1.9944,-1.9944,-1.9304,-1.9328,-1.9378,-1.9422,-1.9458,-1.9495,-1.9523,-1.9562,-1.9601,-1.9656,-1.9681,-1.9727,-1.9776,-1.9849,-1.988,-1.9917,-1.9924,-1.9931,-1.9933,-1.9934,-1.9931,-1.9912,-1.9927,-1.9927,-1.9927,-1.9927,-1.9927,0,-1.9307,-1.9341,-1.938,-1.9437,-1.9471,-1.9492,-1.9538,-1.9565,-1.9606,-1.9649,-1.9688,-1.9741,-1.9786,-1.9835,-1.9883,-1.9903,-1.9916,-1.9914,-1.9913,-1.992,-1.9921,-1.9913,-1.9902,-1.9902,-1.9902,-1.9902,-1.9902,-1.9902,-1.9313,-1.9355,-1.9381,-1.944,-1.9474,-1.9519,-1.9544,-1.9579,-1.9613,-1.967,-1.9708,-1.9739,-1.9784,-1.9835,-1.9878,-1.9891,-1.9907,-1.9901,-1.9917,-1.9918,-1.992,-1.9922,-1.9914,-1.9904,-1.9904,-1.9913,-1.9913,-1.9913]},{"header":{"parameterUnit":"m.s-1","parameterCategory":1,"la1":30.2991,"la2":30.254,"lo1":-89.0895,"lo2":-89.0444,"dy":0.0017,"dx":0.0017,"nx":28,"ny":28,"refTime":"2025-06-12T09:00:00:Z","depth":0,"parameterNumber":3,"parameterNumberName":"V-component_of_WINDS"},"data":[0,0,0,0,0,0,0,0,0,0,0,0,0,0,0,0,0,0,0,0,0,0,0,0,0,0,0,0,0,0,0,0,0,0,0,0,0,0,0,0,0,0,0,0,0,0,0,0,0,0,0,0,0,0,0,0,0,0,3.7744,3.7745,0,3.7884,3.7886,3.7887,3.7874,3.7872,3.787,3.7868,3.8008,3.8013,3.8019,0,0,0,0,0,0,0,0,0,0,0,0,0,3.7462,3.7467,3.7744,3.7746,3.7747,3.7884,3.7886,3.7888,3.7874,3.7872,3.7869,3.7867,3.8006,3.8013,3.802,0,0,0,0,0,0,0,0,0,0,0,0,0,3.7591,3.7469,3.7743,3.7757,3.776,3.7884,3.7886,3.7888,3.7875,3.7872,3.7868,3.7865,3.8004,3.8012,3.8021,3.8139,0,0,3.8047,3.8051,0,0,0,0,0,0,0,0,3.7584,3.7602,3.7753,3.7756,3.776,3.7858,3.7838,3.7972,3.7876,3.7831,3.7867,3.7864,3.796,3.7972,3.8006,3.8145,3.8151,3.8048,3.8053,3.8057,3.8059,0,0,0,0,0,0,0,3.7575,3.7596,3.7799,3.7756,3.7759,3.7756,3.777,3.7863,3.7912,3.7835,3.7834,3.7851,3.7961,3.7998,3.8009,3.8153,3.8047,3.8055,3.806,3.8064,3.8397,3.8401,0,0,0,0,0,0,3.7563,3.7588,3.7795,3.7803,3.7662,3.7763,3.778,3.783,3.7911,3.792,3.7854,3.785,3.7984,3.7999,3.8014,3.8157,3.8057,3.8065,3.807,3.8393,3.8398,3.8402,0,0,0,0,0,0,3.7557,3.7582,3.7789,3.7696,3.7722,3.7772,3.7828,3.7834,3.787,3.7926,3.7934,3.7882,3.7982,3.8002,3.8108,3.8162,3.8069,3.8076,3.8389,3.8395,3.84,3.8445,0,0,0,0,0,0,3.7549,3.758,3.7626,3.7697,3.7727,3.7882,3.7831,3.7839,3.7886,3.7882,3.7954,3.7963,3.7981,3.8095,3.8117,3.8172,3.8083,3.8384,3.8392,3.8398,3.8439,3.8451,3.8462,0,0,0,0,0,3.7539,3.7632,3.7628,3.7653,3.7786,3.7885,3.7902,3.7922,3.789,3.7936,3.7972,3.796,3.8153,3.8106,3.813,3.8189,3.8381,3.839,3.8398,3.8434,3.8449,3.8462,0,0,0,0,0,0,3.7564,3.7642,3.7638,3.7757,3.7815,3.7882,3.7941,3.7938,3.8005,3.7999,3.8021,3.8037,3.8144,3.8177,3.8124,3.8308,3.8263,3.8276,3.8282,3.8297,3.8308,3.8297,3.809,0,0,0,0,0,3.7584,3.7659,3.7722,3.7821,3.785,3.7891,3.7935,3.7946,3.8006,3.803,3.8074,3.8132,3.8205,3.8253,3.8324,3.8444,3.8459,3.8497,3.8508,3.8518,3.8528,3.8594,3.8611,3.8429,3.8429,3.8429,0,0,3.7625,3.7676,3.7722,3.7827,3.7873,3.795,3.7911,3.7994,3.8051,3.8042,3.8146,3.818,3.8246,3.836,3.8412,3.8391,3.8582,3.8528,3.8535,3.8541,3.8604,3.8622,3.8637,3.8435,3.8434,3.8433,0,0,3.7737,3.7785,3.7872,3.7919,3.799,3.8017,3.8038,3.8107,3.813,3.8234,3.823,3.8297,3.8424,3.8471,3.8512,3.8644,3.8636,3.8667,3.8727,3.8791,3.8805,3.8818,3.8864,3.8881,3.8678,3.8678,3.8678,0,3.7779,3.7895,3.7917,3.8001,3.8047,3.8045,3.8133,3.8178,3.8267,3.8299,3.8275,3.8434,3.8478,3.8603,3.8636,3.8669,3.8693,3.8658,3.8801,3.8814,3.8827,3.8871,3.8889,3.8681,3.8681,3.868,3.868,0,3.7941,3.8022,3.8084,3.8172,3.8225,3.8311,3.8345,3.8397,3.8404,3.8433,3.8539,3.8593,3.8675,3.8705,3.8712,3.8832,3.8816,3.8797,3.8751,3.8847,3.8889,3.8906,3.8686,3.8685,3.8684,3.8683,0,0,3.8072,3.8173,3.8195,3.8235,3.8314,3.8376,3.8461,3.8543,3.8586,3.8649,3.872,3.8828,3.8811,3.8857,3.8869,3.8926,3.9027,3.8899,3.8901,3.892,3.9161,3.9174,3.9193,3.9023,3.9026,3.9029,3.9155,0,3.8191,3.8344,3.8367,3.85,3.8575,3.8575,3.8649,3.8705,3.8735,3.8802,3.8835,3.8911,3.8883,3.8911,3.8967,3.9003,3.9075,3.8994,3.9088,3.9091,3.907,3.9216,3.923,3.9346,3.9171,3.9174,3.9176,0,3.8351,3.8419,3.856,3.863,3.8662,3.8728,3.8805,3.8869,3.8933,3.8951,3.9003,3.901,3.9098,3.905,3.9171,3.9116,3.9156,3.918,3.9185,3.9193,3.9138,3.9226,3.9383,3.94,3.9203,3.9201,3.9199,0,3.8431,3.8558,3.8659,3.8693,3.8777,3.8823,3.886,3.8921,3.8968,3.9035,3.9066,3.9142,3.9183,3.9242,3.9268,3.9231,3.9388,3.9342,3.9404,3.9403,3.9435,3.9432,3.9599,3.9464,3.9463,3.9463,3.9463,0,3.8561,3.8647,3.8696,3.8757,3.8854,3.888,3.8975,3.901,3.9064,3.9133,3.9138,3.9201,3.9233,3.9302,3.9323,3.942,3.9439,3.9455,3.9459,3.9454,3.9451,3.9479,3.9471,3.9468,3.9467,3.9466,3.9465,0,3.8665,3.8701,3.8811,3.8882,3.8902,3.897,3.903,3.909,3.912,3.9207,3.9229,3.9276,3.9357,3.939,3.9489,3.9503,3.9614,3.9613,3.9593,3.9594,3.9653,3.9646,3.9842,3.9869,3.9717,3.9718,3.9719,0,3.8745,3.8811,3.889,3.8937,3.8975,3.905,3.9099,3.9128,3.9179,3.9257,3.9307,3.9389,3.9455,3.9585,3.9627,3.9703,3.9703,3.9766,3.9714,3.9707,3.9702,3.9698,3.9704,3.9775,3.9777,3.9778,3.9779,0,3.8883,3.8898,3.8968,3.9046,3.9105,3.9167,3.9228,3.9266,3.9304,3.936,3.9444,3.9496,3.9598,3.9678,3.9757,3.9794,3.9793,3.9796,3.9814,3.9808,3.9793,3.9801,3.9617,3.979,3.9789,3.9788,3.9788,3.9787,3.8977,3.9036,3.91,3.9179,3.9228,3.9285,3.9345,3.9384,3.9454,3.954,3.9553,3.9642,3.9705,3.9811,3.9851,3.9921,3.9904,3.9931,3.9937,3.9943,3.9946,3.9783,3.9935,3.9935,3.9935,3.9935,3.9935,0,3.9113,3.9156,3.9228,3.9313,3.9376,3.9371,3.9438,3.949,3.9569,3.9628,3.9694,3.9791,3.9869,3.9919,3.9998,4.0044,4.0046,4.0064,4.006,4.0068,3.9957,3.9933,4.0061,4.0061,4.0061,4.0061,4.0061,4.0061,3.9192,3.9292,3.9314,3.9439,3.948,3.9568,3.9607,3.966,3.9707,3.9815,3.988,3.9913,3.9968,4.0051,4.0123,4.0136,4.0164,4.0183,4.0194,4.0089,4.0076,4.0063,4.0041,4.019,4.019,4.03,4.0301,4.0301]}]]